Main page
METAR-TAF:

METAR-TAF

Airports :

Parsabad-Moghan Airport

Parsabad, Iran

latitude: 39-36-13N, longitude: 47-52-53E, elevation: 77 m

Current weather observation

The report was made 2 hours and 9 minutes ago, at 20:00 UTC
Wind 4 kt from the West/Southwest
Temperature 23°C
Humidity 94%
Pressure 1006 hPa
Visibility 10 km or more
Few clouds at a height of 3500 ft, Cumulonimbus.
Scattered clouds at a height of 4000 ft
thunderstorm in vicinity

METAR: OITP 222000Z 24004KT 9999 VCTS FEW035CB SCT040 23/22 Q1006

Time: 02:39 (22:09 UTC)


TAF: missing

Weather observations and forecasts of more than 4000 airports (METAR and TAF reports).

The available stations are represented by yellow and red dots on the map.

Hover mouse over dot to see the name of the station.

Then click to see weather observations and forecasts.

To change the map : click on the green buttons with a black cross to zoom in, on the green button with a dash to zoom out, or on the green arrows for adjacent maps.


METAR-TAF: